Jordan, MT

10:12 PM MDT on October 23, 2017 (GMT -0600)
Jordan

Weather History for KJDN - April, 2014

Change the Weather History Date:

Saturday, April 12, 2014

  Actual Average Record
Temperature  
Mean Temperature 37 °F 43 °F  
Max Temperature 45 °F 57 °F 82 °F (1910)
Min Temperature 29 °F 29 °F 8 °F (1909)
Degree Days  
Heating Degree Days 28 22  
Month to date heating degree days 293 283  
Since 1 July heating degree days 7706 7385  
Cooling Degree Days 0 0  
Month to date cooling degree days 0 0  
Year to date cooling degree days 0 0  
Moisture  
Dew Point 26 °F    
Average Humidity 70    
Maximum Humidity 89    
Minimum Humidity 51    
Precipitation  
Precipitation 0.00 in 0.03 in 0.25 in (1909)
Month to date precipitation 0.00 0.32  
Year to date precipitation 1.27 1.32  
Snow  
Snow 0.00 in - - ()
Month to date snowfall 0.0  
Since 1 July snowfall 0.0  
Snow Depth 0.00 in    
Sea Level Pressure  
Sea Level Pressure 30.02 in    
Wind  
Wind Speed 15 mph (NNW)    
Max Wind Speed 26 mph    
Max Gust Speed 34 mph    
T = Trace of Precipitation, MM = Missing Value Source: NWS Daily Summary

Daily Weather History Graph

Daily Weather History Graph

Search for Another Location

Airport or City:

Trip Planner

Search our weather history database for the weather conditions in past years. The results will help you decide how hot, cold, wet, or windy it might be!

Date:

Astronomy

Apr. 12, 2014 Rise Set
Actual Time 6:24 AM MDT 7:52 PM MDT
Civil Twilight 5:53 AM MDT 8:24 PM MDT
Nautical Twilight 5:14 AM MDT 9:03 PM MDT
Astronomical Twilight 4:32 AM MDT 9:45 PM MDT
Moon 5:25 PM MDT (4/12) 5:03 AM MDT (4/12)
Length of Visible Light 14h 31m
Length of Day
13h 27m
Waxing Gibbous, 93% of the Moon is Illuminated
Apr 12
Waxing Gibbous
Apr 15
Full
Apr 22
Last Quarter
Apr 29
New
May 6
First Quarter

Hourly Weather History & Observations

Time (MDT) Temp. Windchill Dew Point Humidity Pressure Visibility Wind Dir Wind Speed Gust Speed Precip Events Conditions
12:48 AM 41.0 °F 37.1 °F 30.9 °F 67% 29.76 in - WNW 5.8 mph - N/A   Unknown
1:48 AM 42.1 °F 36.1 °F 30.9 °F 65% 29.78 in - NW 10.4 mph - N/A   Unknown
2:48 AM 39.9 °F 33.4 °F 32.0 °F 73% 29.78 in - West 10.4 mph - N/A   Unknown
3:48 AM 36.0 °F 32.1 °F 30.9 °F 82% 29.81 in - West 4.6 mph - N/A   Unknown
4:48 AM 37.0 °F 30.4 °F 33.1 °F 86% 29.82 in - NW 9.2 mph - N/A   Unknown
5:48 AM 33.1 °F 27.7 °F 30.0 °F 89% 29.86 in - NNW 5.8 mph - N/A   Unknown
6:48 AM 37.0 °F 31.6 °F 34.0 °F 89% 29.87 in - WNW 6.9 mph - N/A   Unknown
7:48 AM 42.1 °F 35.7 °F 36.0 °F 79% 29.90 in - NNW 11.5 mph - N/A   Unknown
8:48 AM 42.1 °F 34.2 °F 35.1 °F 76% 29.92 in - NNW 16.1 mph - N/A   Unknown
9:48 AM 37.9 °F 29.2 °F 33.1 °F 83% 29.96 in - North 15.0 mph - N/A   Unknown
10:48 AM 36.0 °F 25.6 °F 30.9 °F 82% 30.00 in - NNW 18.4 mph - N/A   Unknown
11:48 AM 35.1 °F 24.1 °F 28.9 °F 78% 30.03 in - NNW 19.6 mph - N/A   Unknown
12:48 PM 35.1 °F 23.8 °F 27.0 °F 72% 30.06 in - NNW 20.7 mph 26.5 mph N/A   Unknown
1:48 PM 35.1 °F 24.8 °F 26.1 °F 70% 30.07 in - NNW 17.3 mph - N/A   Unknown
2:48 PM 37.0 °F 26.7 °F 25.0 °F 62% 30.08 in - North 19.6 mph 27.6 mph N/A   Unknown
3:48 PM 36.0 °F 24.2 °F 23.0 °F 59% 30.10 in - NNW 24.2 mph 31.1 mph N/A   Unknown
4:48 PM 35.1 °F 23.0 °F 21.9 °F 59% 30.12 in - NNW 24.2 mph 33.4 mph N/A   Unknown
5:48 PM 34.0 °F 22.7 °F 19.9 °F 56% 30.15 in - North 19.6 mph 25.3 mph N/A   Unknown
6:48 PM 34.0 °F 22.7 °F 18.0 °F 52% 30.16 in - North 19.6 mph 28.8 mph N/A   Unknown
7:48 PM 32.0 °F 20.8 °F 18.0 °F 56% 30.19 in - North 17.3 mph - N/A   Unknown
8:48 PM 30.9 °F 20.7 °F 17.1 °F 57% 30.23 in - North 13.8 mph 21.9 mph N/A   Unknown
9:48 PM 30.9 °F 19.8 °F 17.1 °F 57% 30.25 in - NNW 16.1 mph - N/A   Unknown
10:48 PM 30.0 °F 18.7 °F 16.0 °F 56% 30.25 in - North 16.1 mph - N/A   Unknown
11:48 PM 30.0 °F 18.7 °F 15.1 °F 54% 30.26 in - North 16.1 mph - N/A   Unknown